{"data":{"norad_id":54773,"intl_designator":"2022-175R","name":"STARLINK-5453","alt_names":[],"object_type":"PAYLOAD","status":"ACTIVE","operator":null,"country":"US","launch_date":"2022-12-17","launch_site_code":"AFETR","launch_vehicle":null,"mission":null,"orbit_class":"UNKNOWN","rcs_meters":null,"size_class":null,"mass_kg":null,"dimensions":null,"purposes":["comms"],"wikipedia_slug":null,"has_3d_model":false,"image_url":null,"decayed_at":null,"tle_current":{"epoch":"2026-05-25T02:00:14.431968Z","epoch_age_seconds":64360,"freshness":"FRESH","line1":"1 54773U 22175R   26145.08350037 -.00000498  00000+0 -13164-4 0  9998","line2":"2 54773  53.2135  61.0508 0002085  68.0049 292.1165 15.08845551191457","mean_motion":15.08845551,"eccentricity":0.0002085,"inclination_deg":53.2135,"raan_deg":61.0508,"arg_perigee_deg":68.0049,"mean_anomaly_deg":292.1165,"bstar":-1.3164e-5,"rev_number":19145,"period_min":95.437203565708,"perigee_km":538.28404730638,"apogee_km":541.16879635329,"semimajor_km":6917.8634218298,"source":"CELESTRAK","updated_at":"2026-05-25T13:38:17.690790Z"}}}